CAPE
0 0 0 0 0 0 0 0 0 0 0 0 0 0 0 0 0 0 0 0 0 0 0 0 0 0 0 0 0 0 0 0 0 0 0 0 0 0 0 0 0 0 0
0 0 0 0 0 0 0 0 0 0 0 0 0 0 0 0 0 0 0 0 0 0 0 0 0 0 0 0 0 0 0 0 0 0 0 0 0 0 0 0 0 0 0
0 0 0 0 0 0 0 0 0 0 0 0 0 0 0 0 0 0 0 0 0 0 0 0 0 0 0 0 0 0 0 0 0 0 0 0 0 0 0 0 0 0 0
0 0 0 0 0 0 0 0 0 0 0 0 0 0 0 0 0 0 0 0 0 0 0 0 0 0 0 0 0 0 0 0 0 0 0 0 0 0 0 0 0 0 0
0 0 0 0 0 0 0 0 0 0 0 0 0 0 0 0 0 0 0 0 0 0 0 0 0 0 0 0 0 0 0 0 0 0 0 0 0 0 0 0 0 0 0
0 0 0 0 0 0 0 0 0 0 0 0 0 0 0 0 0 0 0 0 0 0 0 0 0 0 0 0 0 0 0 0 0 0 0 0 0 0 0 0 0 0 0
0 0 0 0 0 0 0 0 0 0 0 0 0 0 0 0 0 0 0 0 0 0 0 0 0 0 0 0 0 0 0 0 0 0 0 0 0 0 0 0 0 0 0
0 0 0 0 0 0 0 0 0 0 0 0 0 0 0 0 0 0 0 0 0 0 0 0 0 0 0 0 0 0 0 0 0 0 0 0 0 0 0 0 0 0 0
0 0 0 0 0 0 0 0 0 0 0 0 0 0 0 0 0 0 0 0 0 0 0 0 0 0 0 0 0 0 0 0 0 0 0 0 0 0 0 0 0 0 0
0 0 0 0 0 0 0 0 0 0 0 0 0 0 0 0 0 0 0 0 0 0 0 0 0 0 0 0 0 0 0 0 0 0 0 0 0 0 0 0 0 0 0
0 0 0 0 0 0 0 0 0 0 0 0 0 0 0 0 0 0 0 0 0 0 0 0 0 0 0 0 0 0 0 0 0 0 0 0 0 0 0 0 0 0 0
0 0 0 0 0 0 0 0 0 0 0 0 0 0 0 0 0 0 0 0 0 0 0 0 0 0 0 0 0 0 0 0 0 0 0 0 0 0 0 0 0 0 0
0 0 0 0 0 0 0 0 0 0 0 0 0 0 0 0 0 0 0 0 0 0 0 0 0 0 0 0 0 0 0 0 0 0 0 0 0 0 0 0 0 0 0
0 0 0 0 0 0 0 0 0 0 0 0 0 0 0 0 0 0 0 0 0 0 0 0 0 0 0 0 0 0 0 0 0 0 0 0 0 0 0 0 0 0 0
0 0 0 0 0 0 0 0 0 0 0 0 0 0 0 0 0 0 0 0 0 0 0 0 0 0 0 0 0 0 0 0 0 0 0 0 0 0 0 0 0 0 0
0 0 0 0 0 0 0 0 0 0 0 0 0 0 0 0 0 0 0 0 0 0 0 0 0 0 0 0 0 0 0 0 0 0 0 0 0 0 0 0 0 0 0
0 0 0 0 0 0 0 0 0 0 0 0 0 0 0 0 0 0 0 0 0 0 0 0 0 0 0 0 0 0 0 0 0 0 0 0 0 0 0 0 0 0 0
0 0 0 0 0 0 0 2 2 0 0 19 0 0 0 0 0 0 0 0 0 0 0 0 0 0 0 0 0 0 0 0 0 0 0 0 0 0 0 0 0 0 0
0 0 0 0 0 6 0 55 82 67 68 0 0 0 0 0 0 0 0 0 0 0 0 0 0 0 0 0 0 0 0 0 0 0 0 0 0 0 0 0 0 0 0
0 0 0 0 0 0 0 0 0 0 0 1 0 0 0 0 0 0 1 0 0 0 0 0 0 0 0 0 0 0 0 0 0 0 0 0 0 0 0 0 0 0 0
0 0 0 0 0 0 0 0 0 0 0 0 0 0 0 0 0 0 0 0 0 0 0 0 0 0 0 0 0 0 0 0 0 0 0 0 0 0 0 0 0 0 0
0 0 0 0 0 0 0 0 0 0 0 0 0 0 0 0 0 0 0 0 0 0 0 0 0 0 0 0 0 0 0 0 0 0 0 0 0 0 0 0 0 0 0
0 0 0 0 0 0 0 0 0 0 0 0 0 0 0 0 0 0 0 0 0 0 0 0 0 0 0 0 0 0 0 0 0 0 0 0 0 0 0 0 0 0 0
0 0 0 0 0 0 0 0 0 0 0 0 0 0 0 0 0 0 0 0 0 0 0 0 0 0 0 0 0 0 0 0 0 0 0 0 0 0 0 0 0 0 0
0 0 0 0 0 0 0 0 0 0 0 0 0 0 0 0 0 0 0 0 0 0 0 0 0 0 0 0 0 0 0 0 0 0 0 0 0 0 0 0 0 0 0
0 0 0 0 0 0 0 0 0 0 0 0 0 0 0 0 0 0 0 0 0 0 0 0 0 0 0 0 0 0 0 0 0 0 0 0 0 0 0 0 0 0 0
CIN
0 0 0 0 0 0 0 0 0 0 0 0 0 0 0 0 0 0 0 0 0 0 0 0 0 0 0 0 0 0 0 0 0 0 0 0 0 0 0 0 0 0 0
0 0 0 0 0 0 0 0 0 0 0 0 0 0 0 0 0 0 0 0 0 0 0 0 0 0 0 0 0 0 0 0 0 0 0 0 0 0 0 0 0 0 0
0 0 0 0 0 0 0 0 0 0 0 0 0 0 0 0 0 0 0 0 0 0 0 0 0 0 0 0 0 0 0 0 0 0 0 0 0 0 0 0 0 0 0
0 0 0 0 0 0 0 0 0 0 0 0 0 0 0 0 0 0 0 0 0 0 0 0 0 0 0 0 0 0 0 0 0 0 0 0 0 0 0 0 0 0 0
0 0 0 0 0 0 0 0 0 0 0 0 0 0 0 0 0 0 0 0 0 0 0 0 0 0 0 0 0 0 0 0 0 0 0 0 0 0 0 0 0 0 0
0 0 0 0 0 0 0 0 0 0 0 0 0 0 0 0 0 0 0 0 0 0 0 0 0 0 0 0 0 0 0 0 0 0 0 0 0 0 0 0 0 0 0
0 0 0 0 0 0 0 0 0 0 0 0 0 0 0 0 0 0 0 0 0 0 0 0 0 0 0 0 0 0 0 0 0 0 0 0 0 0 0 0 0 0 0
0 0 0 0 0 0 0 0 0 0 0 0 0 0 0 0 0 0 0 0 0 0 0 0 0 0 0 0 0 0 0 0 0 0 0 0 0 0 0 0 0 0 0
0 0 0 0 0 0 0 0 0 0 0 0 0 0 0 0 0 0 0 0 0 0 0 0 0 0 0 0 0 0 0 0 0 0 0 0 0 0 0 0 0 0 0
0 0 0 0 0 0 0 0 0 0 0 0 0 0 0 0 0 0 0 0 0 0 0 0 0 0 0 0 0 0 0 0 0 0 0 0 0 0 0 0 0 0 0
0 0 0 0 0 0 0 0 0 0 0 0 0 0 0 0 0 0 0 0 0 0 0 0 0 0 0 0 0 0 0 0 0 0 0 0 0 0 0 0 0 0 0
0 0 0 0 0 0 0 0 0 0 0 0 0 0 0 0 0 0 0 0 0 0 0 0 0 0 0 0 0 0 0 0 0 0 0 0 0 0 0 0 0 0 0
0 0 0 0 0 0 0 0 0 0 0 0 0 0 0 0 0 0 0 0 0 0 0 0 0 0 0 0 0 0 0 0 0 0 0 0 0 0 0 0 0 0 0
0 0 0 0 0 0 0 0 0 0 0 0 0 0 0 0 0 0 0 0 0 0 0 0 0 0 0 0 0 0 0 0 0 0 0 0 0 0 0 0 0 0 0
0 0 0 0 0 0 0 0 0 0 0 0 0 0 0 0 0 0 0 0 0 0 0 0 0 0 0 0 0 0 0 0 0 0 0 0 0 0 0 0 0 0 0
0 0 0 0 0 0 0 0 0 0 0 0 0 0 0 0 0 0 0 0 0 0 0 0 0 0 0 0 0 0 0 0 0 0 0 0 0 0 0 0 0 0 0
0 0 0 0 0 0 0 0 0 0 0 0 0 0 0 0 0 0 0 0 0 0 0 0 0 0 0 0 0 0 0 0 0 0 0 0 0 0 0 0 0 0 0
0 0 0 0 0 0 0 -243 -169 0 0 -341 0 0 0 0 0 0 0 0 0 0 0 0 0 0 0 0 0 0 0 0 0 0 0 0 0 0 0 0 0 0 0
0 0 0 0 0 -170 0 -263 -233 -231 -245 -1 0 0 0 0 0 0 0 0 0 0 0 0 0 0 0 0 0 0 0 0 0 0 0 0 0 0 0 0 0 0 0
0 0 0 0 0 0 0 0 0 0 0 -71 0 0 0 0 0 0 0 0 0 0 0 0 0 0 0 0 0 0 0 0 0 0 0 0 0 0 0 0 0 0 0
0 0 0 0 0 0 0 0 0 0 0 0 0 0 0 0 0 0 0 0 0 0 0 0 0 0 0 0 0 0 0 0 0 0 0 0 0 0 0 0 0 0 0
0 0 0 0 0 0 0 0 0 0 0 0 0 0 0 0 0 0 0 0 0 0 0 0 0 0 0 0 0 0 0 0 0 0 0 0 0 0 0 0 0 0 0
0 0 0 0 0 0 0 0 0 0 0 0 0 0 0 0 0 0 0 0 0 0 0 0 0 0 0 0 0 0 0 0 0 0 0 0 0 0 0 0 0 0 0
0 0 0 0 0 0 0 0 0 0 0 0 0 0 0 0 0 0 0 0 0 0 0 0 0 0 0 0 0 0 0 0 0 0 0 0 0 0 0 0 0 0 0
0 0 0 0 0 0 0 0 0 0 0 0 0 0 0 0 0 0 0 0 0 0 0 0 0 0 0 0 0 0 0 0 0 0 0 0 0 0 0 0 0 0 0
0 0 0 0 0 0 0 0 0 0 0 0 0 0 0 0 0 0 0 0 0 0 0 0 0 0 0 0 0 0 0 0 0 0 0 0 0 0 0 0 0 0 0
Wind_Speed
6 5 6 5 6 6 6 4 4 5 7 7 7 7 7 8 8 11 10 11 11 9 7 8 7 6 5 4 4 2 3 3 5 1 1 1 3 3 5 4 5 6 6
6 6 6 6 5 6 5 5 4 5 5 6 6 7 7 7 8 10 10 8 10 9 7 10 7 7 7 5 4 4 4 3 5 4 3 4 6 4 4 7 4 4 5
7 7 6 5 5 5 5 5 5 6 6 6 8 8 7 7 9 7 8 8 8 7 6 8 6 7 6 3 3 5 4 3 3 6 3 3 3 3 6 4 4 4 3
8 8 7 7 6 4 4 6 7 6 7 7 7 6 6 7 7 7 8 7 7 6 6 6 6 6 7 5 5 5 5 6 5 7 4 2 2 2 4 3 3 3 2
9 8 8 7 6 5 5 6 7 7 6 7 8 6 6 7 5 8 7 7 8 7 6 5 5 6 7 4 4 4 6 5 4 4 3 2 1 2 2 1 2 1 1
10 9 7 7 7 6 6 7 7 7 7 7 7 7 6 4 8 10 8 7 6 7 7 5 5 8 9 9 8 5 3 10 4 5 3 3 3 3 2 3 3 2 2
10 9 9 7 7 6 6 7 7 7 6 7 6 7 6 5 7 10 11 6 6 6 6 5 4 3 5 6 7 9 8 7 4 7 7 6 5 7 6 3 3 3 3
11 11 10 10 8 7 7 7 6 5 6 5 5 6 6 4 9 11 9 7 5 5 5 6 5 6 4 6 5 5 4 2 2 3 6 7 5 7 6 6 6 3 2
13 12 12 11 10 8 8 8 6 6 5 5 5 7 7 5 9 12 10 6 5 7 6 7 7 7 8 7 6 5 2 3 6 8 6 6 7 7 6 5 2 3 0
14 14 13 12 12 11 9 9 5 5 6 5 6 7 8 8 10 13 10 5 7 5 5 7 11 8 8 9 7 6 6 4 3 3 3 4 4 3 4 2 5 3 1
16 15 14 13 14 13 11 6 7 6 6 6 7 6 7 8 9 14 14 7 7 5 5 5 5 10 11 11 8 6 6 6 5 4 3 1 0 1 0 1 3 4 3
17 16 15 14 12 9 13 10 7 8 8 7 7 5 6 7 10 12 13 12 8 8 7 4 5 10 12 12 8 9 8 6 4 3 2 3 3 3 4 3 4 4 4
17 18 16 15 14 12 12 10 7 9 8 8 7 7 7 7 7 14 15 15 8 5 4 7 9 12 12 9 10 10 9 5 5 4 5 5 5 5 3 3 3 3 5
19 15 16 16 14 12 10 10 10 10 9 8 8 10 10 7 8 8 9 8 10 8 8 4 6 8 10 9 8 8 5 6 8 6 5 5 2 3 4 4 4 3 3
18 16 12 13 15 14 13 12 12 13 15 13 13 12 10 10 13 16 13 11 11 12 6 3 3 2 2 3 4 5 5 5 5 4 4 4 4 4 4 4 4 3 5
17 14 13 9 10 12 12 11 14 12 19 19 19 14 12 18 9 18 20 19 12 15 4 5 6 6 7 8 8 7 4 8 7 6 5 6 5 5 4 3 3 4 5
17 15 12 10 9 11 11 12 13 13 9 16 14 9 12 5 7 8 10 7 7 10 5 5 7 6 8 8 8 7 9 10 8 8 8 6 5 5 5 2 2 4 6
17 16 12 10 10 9 11 12 11 12 12 14 5 3 3 9 12 10 12 9 1 8 7 8 6 7 8 8 7 8 8 5 6 7 6 6 7 6 5 4 3 6 6
14 11 10 8 8 11 11 11 10 8 4 4 4 1 4 7 8 14 19 6 6 6 9 7 7 6 6 5 6 6 6 6 6 5 6 8 8 7 6 6 7 10 6
13 15 10 6 4 4 5 6 5 6 5 4 3 4 5 3 3 2 2 2 6 8 6 5 3 5 5 5 5 5 5 5 6 7 8 9 7 5 5 6 6 10 6
6 6 11 8 7 7 6 5 4 5 4 4 1 2 5 3 5 1 1 2 2 1 3 5 4 4 4 5 4 5 5 6 7 8 7 7 7 7 5 5 5 4 3
9 8 8 9 8 9 8 7 6 7 5 6 6 1 2 4 5 4 3 1 3 4 4 4 4 5 5 5 5 5 5 6 5 6 7 6 7 6 5 6 5 4 4
9 11 11 10 11 11 8 7 6 8 8 9 0 0 3 5 4 4 3 2 2 2 3 3 2 3 3 3 3 4 5 5 6 5 6 6 7 7 6 5 5 4 4
5 8 7 7 8 10 11 7 7 12 9 5 4 2 6 5 5 5 4 2 3 3 3 2 2 4 3 3 3 3 3 3 2 5 8 7 7 6 5 4 7 7 6
9 6 3 7 11 13 13 11 10 8 7 6 6 7 7 7 6 5 5 5 5 6 6 5 4 5 5 7 7 6 5 1 2 4 4 4 3 3 1 1 4 4 2
10 11 8 8 11 12 13 12 10 9 9 9 8 8 7 7 5 5 5 6 5 5 6 5 7 10 9 7 6 4 2 2 4 7 4 3 1 3 3 5 7 2 4
Wind_Direction
148 138 126 122 114 107 103 99 82 76 74 69 81 79 75 66 59 79 76 80 81 79 67 84 85 124 129 125 129 133 142 123 118 67 145 23 55 91 74 63 64 77 96
163 146 137 132 123 110 107 119 124 92 74 94 90 86 77 76 72 78 78 75 88 81 73 80 66 85 77 91 95 97 140 149 122 119 53 41 69 49 88 68 31 76 119
149 140 136 133 126 128 123 122 122 116 107 87 83 88 98 96 89 78 90 85 80 85 87 94 102 100 89 88 118 92 83 81 116 126 104 50 63 28 68 52 41 54 82
149 143 143 155 156 148 133 125 124 126 110 97 90 96 96 98 97 96 96 88 78 68 66 75 83 97 122 123 95 110 109 100 94 113 94 116 107 30 77 97 41 27 48
151 148 161 163 152 142 133 125 116 109 112 113 111 99 103 107 117 112 107 112 112 100 83 85 90 119 127 121 118 112 120 100 119 109 100 92 54 48 126 187 126 338 318
155 161 160 151 147 146 143 132 115 113 113 110 106 114 102 95 119 113 116 113 105 113 115 88 73 79 76 77 84 102 142 142 139 132 142 154 194 179 160 152 130 111 224
159 160 157 152 151 150 135 124 123 130 119 116 117 121 130 138 141 126 124 129 135 142 142 139 116 95 102 101 77 73 72 65 99 155 160 183 169 190 154 138 157 154 195
165 166 160 158 158 150 139 140 133 134 142 144 151 150 142 161 168 150 140 141 144 163 168 178 165 170 175 146 122 104 85 81 138 176 174 172 171 162 166 167 166 155 57
173 173 169 164 159 156 159 160 159 147 155 169 168 168 164 182 177 168 157 162 174 200 203 200 189 191 205 176 150 145 105 21 19 37 65 106 135 155 155 116 114 92 347
179 180 171 168 167 173 172 171 167 158 167 160 173 191 193 191 197 182 166 163 185 204 222 219 207 201 194 179 165 165 170 208 148 97 69 87 130 123 109 87 138 115 120
181 180 176 175 176 178 173 165 162 159 155 179 190 204 209 206 210 200 190 182 196 196 208 216 218 206 187 186 173 176 195 162 187 172 176 187 50 34 120 133 160 142 154
183 183 182 180 183 175 177 178 168 160 173 188 191 215 226 225 222 219 210 212 178 195 215 204 203 195 196 187 177 183 175 154 150 172 187 221 222 229 230 216 228 232 220
182 189 185 187 188 179 178 181 170 179 185 196 197 212 225 218 223 218 212 213 213 198 202 207 196 199 191 185 191 188 179 180 180 181 208 219 205 212 184 214 209 266 287
187 177 187 187 192 186 188 188 186 188 197 201 205 216 221 213 213 206 212 203 203 205 181 164 187 182 191 191 176 200 194 186 191 196 204 213 189 192 211 180 172 175 241
193 193 172 191 192 193 195 190 196 210 197 198 211 213 208 222 225 209 195 196 203 211 139 137 177 144 187 212 225 215 200 186 194 187 183 203 221 203 189 150 167 168 210
189 194 198 176 186 196 201 210 229 225 211 214 214 198 218 232 188 188 197 207 194 144 176 185 209 206 207 206 212 219 206 209 211 196 191 203 209 188 166 171 165 176 213
188 190 196 190 186 194 200 207 218 235 218 224 241 251 247 1 257 231 224 199 189 149 232 215 238 219 227 226 212 206 215 215 209 211 215 206 168 155 160 154 190 215 233
192 181 190 198 194 191 201 204 208 217 221 229 67 257 96 104 77 86 105 112 119 245 230 220 199 218 218 207 206 211 220 205 205 216 209 174 169 159 165 176 216 240 217
191 191 188 182 186 194 198 204 215 221 219 152 148 115 133 81 121 151 154 145 222 226 237 240 221 206 201 205 213 216 218 217 211 198 190 180 178 175 184 180 204 246 198
190 187 185 188 151 153 148 155 157 163 170 174 150 133 145 143 134 60 225 188 205 222 222 242 202 196 199 202 205 206 209 206 209 200 199 193 185 175 169 175 228 234 205
139 128 128 112 109 108 101 87 83 81 53 47 104 21 310 167 119 346 18 29 15 320 222 222 213 209 207 218 211 211 207 212 207 204 193 183 164 183 191 194 243 254 209
113 108 101 101 94 93 93 88 99 97 84 86 55 69 46 69 83 83 79 255 248 236 230 215 222 220 216 208 213 218 210 211 203 193 187 176 177 188 182 204 226 219 211
106 111 109 111 112 115 100 105 110 90 80 63 217 206 75 78 81 79 71 6 303 282 252 233 227 262 247 239 215 201 195 206 204 186 182 182 187 189 187 198 209 197 195
299 107 121 139 157 133 112 127 90 82 114 157 212 118 87 74 62 54 51 18 7 26 38 32 346 297 317 307 288 278 305 315 223 206 189 187 197 194 183 188 224 238 210
102 34 66 147 116 106 101 92 95 102 105 101 78 63 70 75 68 52 44 42 39 37 29 27 21 9 13 7 5 6 3 327 175 139 133 132 153 171 160 208 239 209 138
110 122 115 101 98 104 103 105 101 98 92 88 87 84 80 80 75 69 59 56 54 47 39 26 24 32 30 23 24 26 16 127 146 139 138 130 228 256 232 227 215 184 166